Time,TemperatureF,DewpointF,PressureIn,WindDirection,WindDirectionDegrees,WindSpeedMPH,WindSpeedGustMPH,Humidity,HourlyPrecipIn,Conditions,Clouds,dailyrainin,SoftwareType,DateUTC
2013-01-13 00:03:00,68.8,63.1,29.99,ESE,123,2.0,2.0,82,0.00,,,0.00,Wunderground v.1.15,2013-01-13 05:03:00,
2013-01-13 00:04:00,68.8,63.1,29.99,SE,137,0.0,2.0,82,0.00,,,0.00,Wunderground v.1.15,2013-01-13 05:04:00,
2013-01-13 00:06:00,68.9,63.2,29.99,SSE,154,0.0,2.0,82,0.00,,,0.00,Wunderground v.1.15,2013-01-13 05:06:00,
2013-01-13 00:08:00,68.9,63.2,29.99,SSE,157,0.0,2.0,82,0.00,,,0.00,Wunderground v.1.15,2013-01-13 05:08:00,
2013-01-13 00:13:00,69.1,63.4,29.99,SSE,157,0.0,1.0,82,0.00,,,0.00,Wunderground v.1.15,2013-01-13 05:13:00,
2013-01-13 00:18:00,69.1,63.4,29.98,ENE,78,2.0,2.0,82,0.00,,,0.00,Wunderground v.1.15,2013-01-13 05:18:00,
2013-01-13 00:24:00,69.1,63.4,29.98,ENE,76,0.0,0.0,82,0.00,,,0.00,Wunderground v.1.15,2013-01-13 05:24:00,
2013-01-13 00:29:00,69.1,63.4,29.98,ENE,76,0.0,0.0,82,0.00,,,0.00,Wunderground v.1.15,2013-01-13 05:29:00,
2013-01-13 00:34:00,69.3,63.2,29.98,ENE,76,0.0,0.0,81,0.00,,,0.00,Wunderground v.1.15,2013-01-13 05:34:00,
2013-01-13 00:40:00,69.3,63.2,29.98,SE,133,0.0,0.0,81,0.00,,,0.00,Wunderground v.1.15,2013-01-13 05:40:00,
2013-01-13 00:45:00,69.3,63.2,29.98,SE,130,0.0,0.0,81,0.00,,,0.00,Wunderground v.1.15,2013-01-13 05:45:00,
2013-01-13 00:50:00,69.3,63.2,29.98,East,97,0.0,0.0,81,0.00,,,0.00,Wunderground v.1.15,2013-01-13 05:50:00,
2013-01-13 00:55:00,69.3,63.2,29.98,East,96,0.0,0.0,81,0.00,,,0.00,Wunderground v.1.15,2013-01-13 05:55:00,
2013-01-13 01:01:00,69.3,63.2,29.99,East,92,0.0,0.0,81,0.00,,,0.00,Wunderground v.1.15,2013-01-13 06:01:00,
2013-01-13 01:06:00,69.4,63.3,29.99,SSE,147,0.0,0.0,81,0.00,,,0.00,Wunderground v.1.15,2013-01-13 06:06:00,
2013-01-13 01:11:00,69.6,63.5,29.99,East,90,0.0,0.0,81,0.00,,,0.00,Wunderground v.1.15,2013-01-13 06:11:00,
2013-01-13 01:17:00,69.6,63.5,29.98,ESE,116,0.0,1.0,81,0.00,,,0.00,Wunderground v.1.15,2013-01-13 06:17:00,
2013-01-13 01:22:00,69.8,63.7,29.98,SSE,154,3.0,4.0,81,0.00,,,0.00,Wunderground v.1.15,2013-01-13 06:22:00,
2013-01-13 01:27:00,69.8,63.7,29.98,SE,131,0.0,4.0,81,0.00,,,0.00,Wunderground v.1.15,2013-01-13 06:27:00,
2013-01-13 01:33:00,69.9,63.8,29.98,ENE,71,0.0,1.0,81,0.00,,,0.00,Wunderground v.1.15,2013-01-13 06:33:00,
2013-01-13 01:39:00,69.9,63.8,29.98,East,85,0.0,0.0,81,0.00,,,0.00,Wunderground v.1.15,2013-01-13 06:39:00,
2013-01-13 01:44:00,70.1,64.0,29.98,SSE,165,3.0,3.0,81,0.00,,,0.00,Wunderground v.1.15,2013-01-13 06:44:00,
2013-01-13 01:49:00,70.1,64.0,29.98,SSE,151,0.0,0.0,81,0.00,,,0.00,Wunderground v.1.15,2013-01-13 06:49:00,
2013-01-13 01:55:00,70.1,64.0,29.98,SE,136,0.0,3.0,81,0.00,,,0.00,Wunderground v.1.15,2013-01-13 06:55:00,
2013-01-13 02:00:00,70.1,64.0,29.98,SSE,150,0.0,1.0,81,0.00,,,0.00,Wunderground v.1.15,2013-01-13 07:00:00,
2013-01-13 02:06:00,70.1,64.0,29.98,ENE,75,0.0,5.0,81,0.00,,,0.00,Wunderground v.1.15,2013-01-13 07:06:00,
2013-01-13 02:11:00,70.1,64.0,29.98,East,89,0.0,1.0,81,0.00,,,0.00,Wunderground v.1.15,2013-01-13 07:11:00,
2013-01-13 02:16:00,70.1,64.0,29.98,SE,141,0.0,3.0,81,0.00,,,0.00,Wunderground v.1.15,2013-01-13 07:16:00,
2013-01-13 02:21:00,70.1,64.0,29.98,East,93,2.0,5.0,81,0.00,,,0.00,Wunderground v.1.15,2013-01-13 07:21:00,
2013-01-13 02:26:00,70.1,64.0,29.98,SE,131,0.0,5.0,81,0.00,,,0.00,Wunderground v.1.15,2013-01-13 07:26:00,
2013-01-13 02:31:00,70.1,64.0,29.98,SSE,155,5.0,6.0,81,0.00,,,0.00,Wunderground v.1.15,2013-01-13 07:31:00,
2013-01-13 02:36:00,70.1,64.0,29.98,SE,131,0.0,6.0,81,0.00,,,0.00,Wunderground v.1.15,2013-01-13 07:36:00,
2013-01-13 02:41:00,69.9,63.8,29.98,ESE,112,0.0,0.0,81,0.00,,,0.00,Wunderground v.1.15,2013-01-13 07:41:00,
2013-01-13 02:46:00,69.9,63.8,29.98,SSE,150,5.0,6.0,81,0.00,,,0.00,Wunderground v.1.15,2013-01-13 07:46:00,
2013-01-13 02:51:00,69.9,63.8,29.98,SSE,154,0.0,6.0,81,0.00,,,0.00,Wunderground v.1.15,2013-01-13 07:51:00,
2013-01-13 02:56:00,69.9,63.8,29.98,ESE,114,0.0,6.0,81,0.00,,,0.00,Wunderground v.1.15,2013-01-13 07:56:00,
2013-01-13 03:01:00,69.9,63.8,29.98,SSE,148,0.0,6.0,81,0.00,,,0.00,Wunderground v.1.15,2013-01-13 08:01:00,
2013-01-13 03:06:00,69.9,63.8,29.98,South,184,0.0,6.0,81,0.00,,,0.00,Wunderground v.1.15,2013-01-13 08:06:00,
2013-01-13 03:11:00,69.9,63.8,29.98,ESE,121,2.0,10.0,81,0.00,,,0.00,Wunderground v.1.15,2013-01-13 08:11:00,
2013-01-13 03:16:00,69.9,63.8,29.98,SE,126,0.0,10.0,81,0.00,,,0.00,Wunderground v.1.15,2013-01-13 08:16:00,
2013-01-13 03:21:00,69.9,63.8,29.98,ESE,123,0.0,3.0,81,0.00,,,0.00,Wunderground v.1.15,2013-01-13 08:21:00,
2013-01-13 03:26:00,69.9,63.8,29.98,SE,128,0.0,6.0,81,0.00,,,0.00,Wunderground v.1.15,2013-01-13 08:26:00,
2013-01-13 03:31:00,69.9,63.8,29.97,SE,131,0.0,3.0,81,0.00,,,0.00,Wunderground v.1.15,2013-01-13 08:31:00,
2013-01-13 03:36:00,69.8,63.7,29.97,East,90,0.0,3.0,81,0.00,,,0.00,Wunderground v.1.15,2013-01-13 08:36:00,
2013-01-13 03:41:00,69.8,63.7,29.97,ENE,62,0.0,4.0,81,0.00,,,0.00,Wunderground v.1.15,2013-01-13 08:41:00,
2013-01-13 03:46:00,69.8,63.7,29.96,SSE,158,0.0,4.0,81,0.00,,,0.00,Wunderground v.1.15,2013-01-13 08:46:00,
2013-01-13 03:51:00,69.6,63.5,29.96,SSE,155,0.0,1.0,81,0.00,,,0.00,Wunderground v.1.15,2013-01-13 08:51:00,
2013-01-13 03:56:00,69.6,63.5,29.96,East,99,0.0,2.0,81,0.00,,,0.00,Wunderground v.1.15,2013-01-13 08:56:00,
2013-01-13 04:01:00,69.6,63.5,29.96,ENE,71,0.0,1.0,81,0.00,,,0.00,Wunderground v.1.15,2013-01-13 09:01:00,
2013-01-13 04:06:00,69.6,63.5,29.96,SSE,162,4.0,6.0,81,0.00,,,0.00,Wunderground v.1.15,2013-01-13 09:06:00,
2013-01-13 04:11:00,69.6,63.5,29.96,SE,133,0.0,6.0,81,0.00,,,0.00,Wunderground v.1.15,2013-01-13 09:11:00,
2013-01-13 04:16:00,69.4,63.3,29.96,SE,131,0.0,8.0,81,0.00,,,0.00,Wunderground v.1.15,2013-01-13 09:16:00,
2013-01-13 04:21:00,69.4,63.3,29.96,ESE,106,0.0,1.0,81,0.00,,,0.00,Wunderground v.1.15,2013-01-13 09:21:00,
2013-01-13 04:26:00,69.4,63.3,29.96,SSE,165,0.0,3.0,81,0.00,,,0.00,Wunderground v.1.15,2013-01-13 09:26:00,
2013-01-13 04:31:00,69.4,63.3,29.95,ESE,102,0.0,0.0,81,0.00,,,0.00,Wunderground v.1.15,2013-01-13 09:31:00,
2013-01-13 04:36:00,69.4,63.3,29.95,ESE,110,0.0,4.0,81,0.00,,,0.00,Wunderground v.1.15,2013-01-13 09:36:00,
2013-01-13 04:41:00,69.3,63.2,29.95,SE,138,0.0,3.0,81,0.00,,,0.00,Wunderground v.1.15,2013-01-13 09:41:00,
2013-01-13 04:46:00,69.3,63.2,29.96,SE,144,0.0,10.0,81,0.00,,,0.00,Wunderground v.1.15,2013-01-13 09:46:00,
2013-01-13 04:51:00,69.1,63.0,29.96,ESE,120,2.0,2.0,81,0.00,,,0.00,Wunderground v.1.15,2013-01-13 09:51:00,
2013-01-13 04:56:00,69.1,63.4,29.96,ESE,119,0.0,2.0,82,0.00,,,0.00,Wunderground v.1.15,2013-01-13 09:56:00,
2013-01-13 05:01:00,68.9,63.2,29.96,SE,140,2.0,3.0,82,0.00,,,0.00,Wunderground v.1.15,2013-01-13 10:01:00,
2013-01-13 05:06:00,68.9,63.2,29.96,SE,145,2.0,4.0,82,0.00,,,0.00,Wunderground v.1.15,2013-01-13 10:06:00,
2013-01-13 05:11:00,68.8,63.1,29.96,East,93,0.0,1.0,82,0.00,,,0.00,Wunderground v.1.15,2013-01-13 10:11:00,
2013-01-13 05:16:00,68.6,62.9,29.95,ESE,117,0.0,1.0,82,0.00,,,0.00,Wunderground v.1.15,2013-01-13 10:16:00,
2013-01-13 05:21:00,68.4,62.7,29.95,East,83,0.0,5.0,82,0.00,,,0.00,Wunderground v.1.15,2013-01-13 10:21:00,
2013-01-13 05:26:00,68.4,62.7,29.95,SE,127,0.0,5.0,82,0.00,,,0.00,Wunderground v.1.15,2013-01-13 10:26:00,
2013-01-13 05:31:00,68.3,62.6,29.95,SE,130,0.0,0.0,82,0.00,,,0.00,Wunderground v.1.15,2013-01-13 10:31:00,
2013-01-13 05:36:00,68.1,62.4,29.95,East,79,0.0,0.0,82,0.00,,,0.00,Wunderground v.1.15,2013-01-13 10:36:00,
2013-01-13 05:41:00,67.9,62.5,29.95,East,79,0.0,1.0,83,0.00,,,0.00,Wunderground v.1.15,2013-01-13 10:41:00,
2013-01-13 05:46:00,67.8,62.4,29.95,East,79,0.0,1.0,83,0.00,,,0.00,Wunderground v.1.15,2013-01-13 10:46:00,
2013-01-13 05:51:00,67.6,62.3,29.95,East,79,0.0,0.0,83,0.00,,,0.00,Wunderground v.1.15,2013-01-13 10:51:00,
2013-01-13 05:56:00,67.4,62.1,29.95,East,79,0.0,2.0,83,0.00,,,0.00,Wunderground v.1.15,2013-01-13 10:56:00,
2013-01-13 06:01:00,67.3,62.0,29.95,East,99,0.0,2.0,83,0.00,,,0.00,Wunderground v.1.15,2013-01-13 11:01:00,
2013-01-13 06:06:00,67.1,61.8,29.95,ENE,78,0.0,2.0,83,0.00,,,0.00,Wunderground v.1.15,2013-01-13 11:06:00,
2013-01-13 06:11:00,66.9,61.6,29.95,ENE,76,1.0,1.0,83,0.00,,,0.00,Wunderground v.1.15,2013-01-13 11:11:00,
2013-01-13 06:16:00,66.8,61.5,29.96,ENE,76,0.0,1.0,83,0.00,,,0.00,Wunderground v.1.15,2013-01-13 11:16:00,
2013-01-13 06:21:00,66.6,61.3,29.96,ENE,76,0.0,0.0,83,0.00,,,0.00,Wunderground v.1.15,2013-01-13 11:21:00,
2013-01-13 06:26:00,66.4,61.4,29.96,ENE,76,0.0,0.0,84,0.00,,,0.00,Wunderground v.1.15,2013-01-13 11:26:00,
2013-01-13 06:31:00,66.3,61.3,29.96,ENE,76,0.0,0.0,84,0.00,,,0.00,Wunderground v.1.15,2013-01-13 11:31:00,
2013-01-13 06:36:00,66.1,61.1,29.96,ENE,76,0.0,0.0,84,0.00,,,0.00,Wunderground v.1.15,2013-01-13 11:36:00,
2013-01-13 06:41:00,65.8,60.8,29.96,ENE,76,0.0,0.0,84,0.00,,,0.00,Wunderground v.1.15,2013-01-13 11:41:00,
2013-01-13 06:46:00,65.6,60.6,29.96,ENE,76,0.0,0.0,84,0.00,,,0.00,Wunderground v.1.15,2013-01-13 11:46:00,
2013-01-13 06:51:00,65.5,60.5,29.96,ENE,76,0.0,0.0,84,0.00,,,0.00,Wunderground v.1.15,2013-01-13 11:51:00,
2013-01-13 06:56:00,65.3,60.7,29.96,ENE,76,0.0,1.0,85,0.00,,,0.00,Wunderground v.1.15,2013-01-13 11:56:00,
2013-01-13 07:01:00,65.2,60.6,29.96,ENE,76,0.0,2.0,85,0.00,,,0.00,Wunderground v.1.15,2013-01-13 12:01:00,
2013-01-13 07:06:00,65.2,60.6,29.96,ENE,76,0.0,2.0,85,0.00,,,0.00,Wunderground v.1.15,2013-01-13 12:06:00,
2013-01-13 07:11:00,65.2,60.6,29.96,ENE,76,0.0,0.0,85,0.00,,,0.00,Wunderground v.1.15,2013-01-13 12:11:00,
2013-01-13 07:16:00,65.0,60.4,29.96,ENE,76,0.0,0.0,85,0.00,,,0.00,Wunderground v.1.15,2013-01-13 12:16:00,
2013-01-13 07:21:00,65.0,60.4,29.96,ENE,76,0.0,0.0,85,0.00,,,0.00,Wunderground v.1.15,2013-01-13 12:21:00,
2013-01-13 07:26:00,65.0,60.4,29.96,ENE,76,0.0,3.0,85,0.00,,,0.00,Wunderground v.1.15,2013-01-13 12:26:00,
2013-01-13 07:31:00,64.8,60.5,29.96,ENE,76,0.0,3.0,86,0.00,,,0.00,Wunderground v.1.15,2013-01-13 12:31:00,
2013-01-13 07:36:00,64.8,60.5,29.96,ENE,76,0.0,3.0,86,0.00,,,0.00,Wunderground v.1.15,2013-01-13 12:36:00,
2013-01-13 07:41:00,64.8,60.5,29.96,ENE,69,2.0,3.0,86,0.00,,,0.00,Wunderground v.1.15,2013-01-13 12:41:00,
2013-01-13 07:46:00,65.0,60.7,29.97,ENE,71,0.0,3.0,86,0.00,,,0.00,Wunderground v.1.15,2013-01-13 12:46:00,
2013-01-13 07:51:00,65.0,60.7,29.97,ENE,69,0.0,0.0,86,0.00,,,0.00,Wunderground v.1.15,2013-01-13 12:51:00,
2013-01-13 07:56:00,65.0,60.7,29.97,ENE,69,0.0,0.0,86,0.00,,,0.00,Wunderground v.1.15,2013-01-13 12:56:00,
2013-01-13 08:01:00,65.0,60.7,29.98,ENE,71,0.0,0.0,86,0.00,,,0.00,Wunderground v.1.15,2013-01-13 13:01:00,
2013-01-13 08:06:00,65.2,60.9,29.98,ENE,69,0.0,1.0,86,0.00,,,0.00,Wunderground v.1.15,2013-01-13 13:06:00,
2013-01-13 08:11:00,65.3,61.0,29.98,ENE,71,0.0,0.0,86,0.00,,,0.00,Wunderground v.1.15,2013-01-13 13:11:00,
2013-01-13 08:16:00,65.6,61.3,29.99,ENE,71,0.0,0.0,86,0.00,,,0.00,Wunderground v.1.15,2013-01-13 13:16:00,
2013-01-13 08:21:00,66.0,61.7,29.99,ENE,71,0.0,0.0,86,0.00,,,0.00,Wunderground v.1.15,2013-01-13 13:21:00,
2013-01-13 08:26:00,66.4,62.1,29.99,ENE,69,0.0,0.0,86,0.00,,,0.00,Wunderground v.1.15,2013-01-13 13:26:00,
2013-01-13 08:31:00,66.8,62.5,30.01,ENE,69,0.0,0.0,86,0.00,,,0.00,Wunderground v.1.15,2013-01-13 13:31:00,
2013-01-13 08:36:00,67.1,62.8,30.01,ENE,71,0.0,0.0,86,0.00,,,0.00,Wunderground v.1.15,2013-01-13 13:36:00,
2013-01-13 08:41:00,67.4,63.1,30.01,ENE,69,0.0,0.0,86,0.00,,,0.00,Wunderground v.1.15,2013-01-13 13:41:00,
2013-01-13 08:46:00,67.8,63.5,30.02,ENE,62,2.0,3.0,86,0.00,,,0.00,Wunderground v.1.15,2013-01-13 13:46:00,
2013-01-13 08:51:00,67.9,63.2,30.02,ENE,65,0.0,0.0,85,0.00,,,0.00,Wunderground v.1.15,2013-01-13 13:51:00,
2013-01-13 08:56:00,68.3,63.6,30.02,East,95,1.0,3.0,85,0.00,,,0.00,Wunderground v.1.15,2013-01-13 13:56:00,
2013-01-13 09:01:00,68.6,63.9,30.02,ENE,76,3.0,6.0,85,0.00,,,0.00,Wunderground v.1.15,2013-01-13 14:01:00,
2013-01-13 09:07:00,69.1,64.4,30.02,East,85,5.0,6.0,85,0.00,,,0.00,Wunderground v.1.15,2013-01-13 14:07:00,
2013-01-13 09:12:00,69.6,64.5,30.02,ENE,71,0.0,2.0,84,0.00,,,0.00,Wunderground v.1.15,2013-01-13 14:12:00,
2013-01-13 09:17:00,70.1,65.0,30.04,ENE,71,0.0,2.0,84,0.00,,,0.00,Wunderground v.1.15,2013-01-13 14:17:00,
2013-01-13 09:22:00,70.6,65.2,30.04,East,79,0.0,6.0,83,0.00,,,0.00,Wunderground v.1.15,2013-01-13 14:22:00,
2013-01-13 09:27:00,71.1,65.7,30.04,East,93,0.0,6.0,83,0.00,,,0.00,Wunderground v.1.15,2013-01-13 14:27:00,
2013-01-13 09:32:00,71.8,66.4,30.05,SSE,167,0.0,5.0,83,0.00,,,0.00,Wunderground v.1.15,2013-01-13 14:32:00,
2013-01-13 09:37:00,72.5,66.7,30.05,ESE,110,0.0,5.0,82,0.00,,,0.00,Wunderground v.1.15,2013-01-13 14:37:00,
2013-01-13 09:42:00,73.2,67.0,30.05,ENE,73,3.0,3.0,81,0.00,,,0.00,Wunderground v.1.15,2013-01-13 14:42:00,
2013-01-13 09:47:00,73.5,66.9,30.05,SSE,151,3.0,6.0,80,0.00,,,0.00,Wunderground v.1.15,2013-01-13 14:47:00,
2013-01-13 09:52:00,74.0,67.4,30.05,SSE,150,0.0,5.0,80,0.00,,,0.00,Wunderground v.1.15,2013-01-13 14:52:00,
2013-01-13 09:57:00,74.6,67.7,30.05,NE,54,5.0,5.0,79,0.00,,,0.00,Wunderground v.1.15,2013-01-13 14:57:00,
2013-01-13 10:02:00,75.1,67.8,30.06,SSE,168,0.0,2.0,78,0.00,,,0.00,Wunderground v.1.15,2013-01-13 15:02:00,
2013-01-13 10:07:00,75.4,68.1,30.06,East,80,0.0,8.0,78,0.00,,,0.00,Wunderground v.1.15,2013-01-13 15:07:00,
2013-01-13 10:12:00,75.6,67.9,30.06,SE,130,0.0,8.0,77,0.00,,,0.00,Wunderground v.1.15,2013-01-13 15:12:00,
2013-01-13 10:17:00,75.8,67.7,30.06,SE,136,0.0,8.0,76,0.00,,,0.00,Wunderground v.1.15,2013-01-13 15:17:00,
2013-01-13 10:22:00,76.0,67.9,30.06,SE,141,5.0,8.0,76,0.00,,,0.00,Wunderground v.1.15,2013-01-13 15:22:00,
2013-01-13 10:27:00,76.3,68.2,30.06,SE,134,0.0,8.0,76,0.00,,,0.00,Wunderground v.1.15,2013-01-13 15:27:00,
2013-01-13 10:32:00,76.5,68.0,30.06,ESE,123,1.0,10.0,75,0.00,,,0.00,Wunderground v.1.15,2013-01-13 15:32:00,
2013-01-13 10:37:00,76.7,67.8,30.06,SE,126,2.0,10.0,74,0.00,,,0.00,Wunderground v.1.15,2013-01-13 15:37:00,
2013-01-13 10:42:00,77.0,68.1,30.06,SSE,167,0.0,8.0,74,0.00,,,0.00,Wunderground v.1.15,2013-01-13 15:42:00,
2013-01-13 10:47:00,77.2,67.9,30.05,East,85,0.0,8.0,73,0.00,,,0.00,Wunderground v.1.15,2013-01-13 15:47:00,
2013-01-13 10:52:00,77.2,67.9,30.05,ESE,114,0.0,3.0,73,0.00,,,0.00,Wunderground v.1.15,2013-01-13 15:52:00,
2013-01-13 10:57:00,77.4,68.1,30.05,East,97,0.0,4.0,73,0.00,,,0.00,Wunderground v.1.15,2013-01-13 15:57:00,
2013-01-13 11:02:00,77.6,67.9,30.04,East,95,0.0,3.0,72,0.00,,,0.00,Wunderground v.1.15,2013-01-13 16:02:00,
2013-01-13 11:07:00,77.7,68.0,30.04,SSW,199,3.0,6.0,72,0.00,,,0.00,Wunderground v.1.15,2013-01-13 16:07:00,
2013-01-13 11:12:00,78.1,67.9,30.04,SE,145,0.0,8.0,71,0.00,,,0.00,Wunderground v.1.15,2013-01-13 16:12:00,
2013-01-13 11:17:00,78.1,67.9,30.04,SE,126,4.0,10.0,71,0.00,,,0.00,Wunderground v.1.15,2013-01-13 16:17:00,
2013-01-13 11:22:00,78.3,67.7,30.04,ESE,110,6.0,10.0,70,0.00,,,0.00,Wunderground v.1.15,2013-01-13 16:22:00,
2013-01-13 11:27:00,78.3,67.7,30.04,SSE,161,0.0,10.0,70,0.00,,,0.00,Wunderground v.1.15,2013-01-13 16:27:00,
2013-01-13 11:32:00,78.6,68.0,30.02,SSE,164,2.0,6.0,70,0.00,,,0.00,Wunderground v.1.15,2013-01-13 16:32:00,
2013-01-13 11:37:00,78.8,67.8,30.02,ESE,114,0.0,7.0,69,0.00,,,0.00,Wunderground v.1.15,2013-01-13 16:37:00,
2013-01-13 11:42:00,79.0,68.0,30.02,SE,140,2.0,8.0,69,0.00,,,0.00,Wunderground v.1.15,2013-01-13 16:42:00,
2013-01-13 11:47:00,79.2,67.7,30.02,SSE,165,6.0,9.0,68,0.00,,,0.00,Wunderground v.1.15,2013-01-13 16:47:00,
2013-01-13 11:53:00,79.2,67.7,30.02,SE,134,0.0,7.0,68,0.00,,,0.00,Wunderground v.1.15,2013-01-13 16:53:00,
2013-01-13 11:58:00,79.2,67.7,30.02,SSE,151,0.0,7.0,68,0.00,,,0.00,Wunderground v.1.15,2013-01-13 16:58:00,
2013-01-13 12:03:00,79.2,67.7,30.01,SE,137,0.0,7.0,68,0.00,,,0.00,Wunderground v.1.15,2013-01-13 17:03:00,
2013-01-13 12:08:00,79.4,67.5,30.01,SE,133,5.0,8.0,67,0.00,,,0.00,Wunderground v.1.15,2013-01-13 17:08:00,
2013-01-13 12:13:00,79.4,67.5,30.01,SW,226,7.0,8.0,67,0.00,,,0.00,Wunderground v.1.15,2013-01-13 17:13:00,
2013-01-13 12:18:00,79.4,67.0,30.01,SSE,148,0.0,8.0,66,0.00,,,0.00,Wunderground v.1.15,2013-01-13 17:18:00,
2013-01-13 12:23:00,79.4,67.0,30.01,ESE,112,5.0,10.0,66,0.00,,,0.00,Wunderground v.1.15,2013-01-13 17:23:00,
2013-01-13 12:28:00,79.0,66.7,30.01,South,171,0.0,10.0,66,0.00,,,0.00,Wunderground v.1.15,2013-01-13 17:28:00,
2013-01-13 12:33:00,79.0,66.7,30.00,SSE,165,4.0,6.0,66,0.00,,,0.00,Wunderground v.1.15,2013-01-13 17:33:00,
2013-01-13 12:38:00,79.2,66.4,30.00,ESE,109,2.0,7.0,65,0.00,,,0.00,Wunderground v.1.15,2013-01-13 17:38:00,
2013-01-13 12:43:00,79.6,66.8,30.00,SE,131,6.0,13.0,65,0.00,,,0.00,Wunderground v.1.15,2013-01-13 17:43:00,
2013-01-13 12:48:00,79.6,66.3,29.99,SE,128,0.0,13.0,64,0.00,,,0.00,Wunderground v.1.15,2013-01-13 17:48:00,
2013-01-13 12:53:00,79.9,66.6,29.99,SSW,200,3.0,8.0,64,0.00,,,0.00,Wunderground v.1.15,2013-01-13 17:53:00,
2013-01-13 12:58:00,80.1,66.4,29.99,SSW,208,0.0,11.0,63,0.00,,,0.00,Wunderground v.1.15,2013-01-13 17:58:00,
2013-01-13 13:03:00,80.1,66.4,29.98,SSE,155,0.0,8.0,63,0.00,,,0.00,Wunderground v.1.15,2013-01-13 18:03:00,
2013-01-13 13:08:00,80.3,66.1,29.98,SSW,205,3.0,11.0,62,0.00,,,0.00,Wunderground v.1.15,2013-01-13 18:08:00,
2013-01-13 13:13:00,80.3,66.1,29.98,South,182,1.0,10.0,62,0.00,,,0.00,Wunderground v.1.15,2013-01-13 18:13:00,
2013-01-13 13:18:00,80.3,66.1,29.97,SE,141,5.0,10.0,62,0.00,,,0.00,Wunderground v.1.15,2013-01-13 18:18:00,
2013-01-13 13:23:00,80.1,65.4,29.97,SE,126,6.0,11.0,61,0.00,,,0.00,Wunderground v.1.15,2013-01-13 18:23:00,
2013-01-13 13:28:00,80.1,65.4,29.97,ESE,119,0.0,11.0,61,0.00,,,0.00,Wunderground v.1.15,2013-01-13 18:28:00,
2013-01-13 13:33:00,80.5,65.8,29.97,South,175,4.0,6.0,61,0.00,,,0.00,Wunderground v.1.15,2013-01-13 18:33:00,
2013-01-13 13:38:00,80.7,66.0,29.97,South,172,1.0,8.0,61,0.00,,,0.00,Wunderground v.1.15,2013-01-13 18:38:00,
2013-01-13 13:43:00,80.7,66.0,29.97,SSE,147,0.0,7.0,61,0.00,,,0.00,Wunderground v.1.15,2013-01-13 18:43:00,
2013-01-13 13:48:00,80.7,65.5,29.96,SSE,168,0.0,10.0,60,0.00,,,0.00,Wunderground v.1.15,2013-01-13 18:48:00,
2013-01-13 13:53:00,80.7,65.5,29.96,SE,141,3.0,8.0,60,0.00,,,0.00,Wunderground v.1.15,2013-01-13 18:53:00,
2013-01-13 13:58:00,80.7,65.5,29.96,ENE,66,0.0,8.0,60,0.00,,,0.00,Wunderground v.1.15,2013-01-13 18:58:00,
2013-01-13 14:03:00,80.9,65.7,29.97,SSW,195,0.0,6.0,60,0.00,,,0.00,Wunderground v.1.15,2013-01-13 19:03:00,
2013-01-13 14:08:00,80.9,65.2,29.97,SSE,164,2.0,8.0,59,0.00,,,0.00,Wunderground v.1.15,2013-01-13 19:08:00,
2013-01-13 14:13:00,80.9,65.2,29.97,South,175,7.0,7.0,59,0.00,,,0.00,Wunderground v.1.15,2013-01-13 19:13:00,
2013-01-13 14:18:00,80.9,65.2,29.96,SE,130,0.0,8.0,59,0.00,,,0.00,Wunderground v.1.15,2013-01-13 19:18:00,
2013-01-13 14:23:00,80.9,65.2,29.96,SSW,202,3.0,8.0,59,0.00,,,0.00,Wunderground v.1.15,2013-01-13 19:23:00,
2013-01-13 14:28:00,80.9,65.2,29.96,SE,131,0.0,8.0,59,0.00,,,0.00,Wunderground v.1.15,2013-01-13 19:28:00,
2013-01-13 14:33:00,80.9,65.2,29.96,SE,137,0.0,5.0,59,0.00,,,0.00,Wunderground v.1.15,2013-01-13 19:33:00,
2013-01-13 14:38:00,80.7,64.5,29.96,SSE,168,0.0,9.0,58,0.00,,,0.00,Wunderground v.1.15,2013-01-13 19:38:00,
2013-01-13 14:43:00,80.9,65.2,29.96,SE,133,4.0,5.0,59,0.00,,,0.00,Wunderground v.1.15,2013-01-13 19:43:00,
2013-01-13 14:48:00,80.9,65.2,29.97,SSW,195,0.0,5.0,59,0.00,,,0.00,Wunderground v.1.15,2013-01-13 19:48:00,
2013-01-13 14:53:00,80.9,64.7,29.97,SSW,210,0.0,1.0,58,0.00,,,0.00,Wunderground v.1.15,2013-01-13 19:53:00,
2013-01-13 14:58:00,80.9,64.7,29.97,ESE,119,0.0,3.0,58,0.00,,,0.00,Wunderground v.1.15,2013-01-13 19:58:00,
2013-01-13 15:03:00,80.9,64.7,29.97,SSE,152,0.0,0.0,58,0.00,,,0.00,Wunderground v.1.15,2013-01-13 20:03:00,
2013-01-13 15:08:00,80.9,64.7,29.97,SSE,155,0.0,3.0,58,0.00,,,0.00,Wunderground v.1.15,2013-01-13 20:08:00,
2013-01-13 15:13:00,80.9,64.7,29.97,SSE,154,0.0,0.0,58,0.00,,,0.00,Wunderground v.1.15,2013-01-13 20:13:00,
2013-01-13 15:18:00,80.9,64.2,29.96,South,178,0.0,6.0,57,0.00,,,0.00,Wunderground v.1.15,2013-01-13 20:18:00,
2013-01-13 15:23:00,80.7,64.1,29.96,SSE,147,0.0,5.0,57,0.00,,,0.00,Wunderground v.1.15,2013-01-13 20:23:00,
2013-01-13 15:28:00,80.5,63.9,29.96,East,92,0.0,7.0,57,0.00,,,0.00,Wunderground v.1.15,2013-01-13 20:28:00,
2013-01-13 15:33:00,80.5,63.9,29.96,SE,138,0.0,1.0,57,0.00,,,0.00,Wunderground v.1.15,2013-01-13 20:33:00,
2013-01-13 15:38:00,80.3,63.7,29.96,SE,136,5.0,6.0,57,0.00,,,0.00,Wunderground v.1.15,2013-01-13 20:38:00,
2013-01-13 15:43:00,80.3,63.7,29.96,SE,136,0.0,4.0,57,0.00,,,0.00,Wunderground v.1.15,2013-01-13 20:43:00,
2013-01-13 15:48:00,80.1,63.5,29.97,South,176,0.0,4.0,57,0.00,,,0.00,Wunderground v.1.15,2013-01-13 20:48:00,
2013-01-13 15:53:00,79.9,63.3,29.97,SSE,155,0.0,3.0,57,0.00,,,0.00,Wunderground v.1.15,2013-01-13 20:53:00,
2013-01-13 15:58:00,79.9,63.3,29.97,South,189,0.0,5.0,57,0.00,,,0.00,Wunderground v.1.15,2013-01-13 20:58:00,
2013-01-13 16:03:00,79.9,63.3,29.97,South,189,0.0,2.0,57,0.00,,,0.00,Wunderground v.1.15,2013-01-13 21:03:00,
2013-01-13 16:08:00,79.9,63.8,29.97,South,189,0.0,2.0,58,0.00,,,0.00,Wunderground v.1.15,2013-01-13 21:08:00,
2013-01-13 16:13:00,79.9,64.3,29.97,SW,215,0.0,0.0,59,0.00,,,0.00,Wunderground v.1.15,2013-01-13 21:13:00,
2013-01-13 16:19:00,80.1,64.5,29.98,SW,215,0.0,0.0,59,0.00,,,0.00,Wunderground v.1.15,2013-01-13 21:19:00,
2013-01-13 16:23:00,79.9,64.3,29.98,SW,215,0.0,0.0,59,0.00,,,0.00,Wunderground v.1.15,2013-01-13 21:23:00,
2013-01-13 16:29:00,79.9,64.8,29.98,SW,215,0.0,0.0,60,0.00,,,0.00,Wunderground v.1.15,2013-01-13 21:29:00,
2013-01-13 16:33:00,79.8,64.7,29.98,SW,215,0.0,0.0,60,0.00,,,0.00,Wunderground v.1.15,2013-01-13 21:33:00,
2013-01-13 16:38:00,79.6,64.5,29.98,SW,215,0.0,0.0,60,0.00,,,0.00,Wunderground v.1.15,2013-01-13 21:38:00,
2013-01-13 16:43:00,79.4,64.3,29.98,SW,215,0.0,0.0,60,0.00,,,0.00,Wunderground v.1.15,2013-01-13 21:43:00,
2013-01-13 16:49:00,79.2,64.6,29.98,SW,215,0.0,0.0,61,0.00,,,0.00,Wunderground v.1.15,2013-01-13 21:49:00,
2013-01-13 16:54:00,78.8,64.2,29.98,SW,215,0.0,0.0,61,0.00,,,0.00,Wunderground v.1.15,2013-01-13 21:54:00,
2013-01-13 16:58:00,78.6,64.5,29.98,SW,215,0.0,0.0,62,0.00,,,0.00,Wunderground v.1.15,2013-01-13 21:58:00,
2013-01-13 17:03:00,78.5,64.4,29.98,SW,215,0.0,0.0,62,0.00,,,0.00,Wunderground v.1.15,2013-01-13 22:03:00,
2013-01-13 17:09:00,78.1,64.0,29.98,SW,216,0.0,0.0,62,0.00,,,0.00,Wunderground v.1.15,2013-01-13 22:09:00,
2013-01-13 17:14:00,77.9,64.3,29.98,SW,215,0.0,0.0,63,0.00,,,0.00,Wunderground v.1.15,2013-01-13 22:14:00,
2013-01-13 17:19:00,77.7,64.1,29.98,SW,215,0.0,0.0,63,0.00,,,0.00,Wunderground v.1.15,2013-01-13 22:19:00,
2013-01-13 17:24:00,77.6,64.5,29.98,SW,215,0.0,0.0,64,0.00,,,0.00,Wunderground v.1.15,2013-01-13 22:24:00,
2013-01-13 17:29:00,77.4,64.3,29.98,SW,215,0.0,0.0,64,0.00,,,0.00,Wunderground v.1.15,2013-01-13 22:29:00,
2013-01-13 17:33:00,77.2,64.1,29.98,SW,216,0.0,0.0,64,0.00,,,0.00,Wunderground v.1.15,2013-01-13 22:33:00,
2013-01-13 17:38:00,76.8,63.7,29.98,SW,215,0.0,0.0,64,0.00,,,0.00,Wunderground v.1.15,2013-01-13 22:38:00,
2013-01-13 17:43:00,76.7,63.6,29.98,SW,215,0.0,0.0,64,0.00,,,0.00,Wunderground v.1.15,2013-01-13 22:43:00,
2013-01-13 17:49:00,76.5,63.4,29.98,SW,215,0.0,0.0,64,0.00,,,0.00,Wunderground v.1.15,2013-01-13 22:49:00,
2013-01-13 17:54:00,76.3,63.2,29.98,SW,216,0.0,0.0,64,0.00,,,0.00,Wunderground v.1.15,2013-01-13 22:54:00,
2013-01-13 17:59:00,76.0,63.4,29.98,SW,216,0.0,0.0,65,0.00,,,0.00,Wunderground v.1.15,2013-01-13 22:59:00,
2013-01-13 18:04:00,75.8,63.2,29.98,SW,215,0.0,0.0,65,0.00,,,0.00,Wunderground v.1.15,2013-01-13 23:04:00,
2013-01-13 18:09:00,75.4,62.8,29.98,SW,215,0.0,0.0,65,0.00,,,0.00,Wunderground v.1.15,2013-01-13 23:09:00,
2013-01-13 18:14:00,75.3,63.2,29.98,SW,215,0.0,0.0,66,0.00,,,0.00,Wunderground v.1.15,2013-01-13 23:14:00,
2013-01-13 18:19:00,74.9,62.8,29.98,SW,215,0.0,0.0,66,0.00,,,0.00,Wunderground v.1.15,2013-01-13 23:19:00,
2013-01-13 18:24:00,74.7,62.6,29.98,SW,215,0.0,0.0,66,0.00,,,0.00,Wunderground v.1.15,2013-01-13 23:24:00,
2013-01-13 18:29:00,74.6,62.9,29.98,SW,215,0.0,0.0,67,0.00,,,0.00,Wunderground v.1.15,2013-01-13 23:29:00,
2013-01-13 18:34:00,74.2,62.5,29.98,SW,215,0.0,0.0,67,0.00,,,0.00,Wunderground v.1.15,2013-01-13 23:34:00,
2013-01-13 18:39:00,73.9,62.2,29.98,SW,215,0.0,0.0,67,0.00,,,0.00,Wunderground v.1.15,2013-01-13 23:39:00,
2013-01-13 18:44:00,73.7,62.5,29.98,SW,215,0.0,0.0,68,0.00,,,0.00,Wunderground v.1.15,2013-01-13 23:44:00,
2013-01-13 18:49:00,73.5,62.3,29.98,SW,215,0.0,0.0,68,0.00,,,0.00,Wunderground v.1.15,2013-01-13 23:49:00,
2013-01-13 18:54:00,73.2,62.0,29.98,SW,216,0.0,0.0,68,0.00,,,0.00,Wunderground v.1.15,2013-01-13 23:54:00,
2013-01-13 18:59:00,73.0,62.2,29.98,SW,215,0.0,0.0,69,0.00,,,0.00,Wunderground v.1.15,2013-01-13 23:59:00,
2013-01-13 19:04:00,72.7,61.9,29.98,SW,215,0.0,0.0,69,0.00,,,0.00,Wunderground v.1.15,2013-01-14 00:04:00,
2013-01-13 19:09:00,72.3,61.6,29.98,SW,215,0.0,0.0,69,0.00,,,0.00,Wunderground v.1.15,2013-01-14 00:09:00,
2013-01-13 19:14:00,72.1,61.4,29.98,SW,215,0.0,0.0,69,0.00,,,0.00,Wunderground v.1.15,2013-01-14 00:14:00,
2013-01-13 19:19:00,71.8,61.1,29.98,SW,215,0.0,0.0,69,0.00,,,0.00,Wunderground v.1.15,2013-01-14 00:19:00,
2013-01-13 19:24:00,71.5,61.2,29.98,SW,215,0.0,0.0,70,0.00,,,0.00,Wunderground v.1.15,2013-01-14 00:24:00,
2013-01-13 19:29:00,71.3,61.0,29.98,SW,215,0.0,0.0,70,0.00,,,0.00,Wunderground v.1.15,2013-01-14 00:29:00,
2013-01-13 19:34:00,71.1,60.8,29.98,SW,215,0.0,1.0,70,0.00,,,0.00,Wunderground v.1.15,2013-01-14 00:34:00,
2013-01-13 19:39:00,70.9,61.0,29.98,SW,215,0.0,1.0,71,0.00,,,0.00,Wunderground v.1.15,2013-01-14 00:39:00,
2013-01-13 19:44:00,70.8,60.9,29.98,SW,215,0.0,0.0,71,0.00,,,0.00,Wunderground v.1.15,2013-01-14 00:44:00,
2013-01-13 19:49:00,70.6,60.7,29.98,SW,215,0.0,0.0,71,0.00,,,0.00,Wunderground v.1.15,2013-01-14 00:49:00,
2013-01-13 19:54:00,70.4,60.9,29.98,SW,216,0.0,0.0,72,0.00,,,0.00,Wunderground v.1.15,2013-01-14 00:54:00,
2013-01-13 19:59:00,70.3,60.8,29.98,SW,215,0.0,0.0,72,0.00,,,0.00,Wunderground v.1.15,2013-01-14 00:59:00,
2013-01-13 20:04:00,70.3,60.8,29.98,SW,215,0.0,0.0,72,0.00,,,0.00,Wunderground v.1.15,2013-01-14 01:04:00,
2013-01-13 20:09:00,70.1,60.7,29.98,SW,215,0.0,0.0,72,0.00,,,0.00,Wunderground v.1.15,2013-01-14 01:09:00,
2013-01-13 20:14:00,70.1,61.0,29.98,SW,215,0.0,0.0,73,0.00,,,0.00,Wunderground v.1.15,2013-01-14 01:14:00,
2013-01-13 20:19:00,70.1,61.0,29.98,SW,215,0.0,0.0,73,0.00,,,0.00,Wunderground v.1.15,2013-01-14 01:19:00,
2013-01-13 20:24:00,69.9,60.8,29.98,SW,215,0.0,0.0,73,0.00,,,0.00,Wunderground v.1.15,2013-01-14 01:24:00,
2013-01-13 20:29:00,69.8,60.8,29.98,SW,215,0.0,0.0,73,0.00,,,0.00,Wunderground v.1.15,2013-01-14 01:29:00,
2013-01-13 20:34:00,69.6,60.6,29.98,SW,215,0.0,0.0,73,0.00,,,0.00,Wunderground v.1.15,2013-01-14 01:34:00,
2013-01-13 20:39:00,69.6,60.6,29.98,SW,215,0.0,0.0,73,0.00,,,0.00,Wunderground v.1.15,2013-01-14 01:39:00,
2013-01-13 20:44:00,69.4,60.8,29.98,SW,215,0.0,0.0,74,0.00,,,0.00,Wunderground v.1.15,2013-01-14 01:44:00,
2013-01-13 20:49:00,69.3,60.7,29.98,SW,215,0.0,0.0,74,0.00,,,0.00,Wunderground v.1.15,2013-01-14 01:49:00,
2013-01-13 20:54:00,69.1,60.5,29.98,SW,215,0.0,0.0,74,0.00,,,0.00,Wunderground v.1.15,2013-01-14 01:54:00,
2013-01-13 20:59:00,68.9,60.3,29.98,SW,215,0.0,0.0,74,0.00,,,0.00,Wunderground v.1.15,2013-01-14 01:59:00,
2013-01-13 21:04:00,68.6,60.0,29.98,SW,215,0.0,0.0,74,0.00,,,0.00,Wunderground v.1.15,2013-01-14 02:04:00,
2013-01-13 21:09:00,68.4,60.2,29.98,SW,215,0.0,0.0,75,0.00,,,0.00,Wunderground v.1.15,2013-01-14 02:09:00,
2013-01-13 21:14:00,68.3,60.1,29.98,SW,215,0.0,0.0,75,0.00,,,0.00,Wunderground v.1.15,2013-01-14 02:14:00,
2013-01-13 21:19:00,68.1,60.2,29.98,SW,215,0.0,0.0,76,0.00,,,0.00,Wunderground v.1.15,2013-01-14 02:19:00,
2013-01-13 21:24:00,68.1,60.2,29.98,SW,215,0.0,0.0,76,0.00,,,0.00,Wunderground v.1.15,2013-01-14 02:24:00,
2013-01-13 21:29:00,67.9,60.1,29.98,SW,215,0.0,0.0,76,0.00,,,0.00,Wunderground v.1.15,2013-01-14 02:29:00,
2013-01-13 21:35:00,67.9,60.1,29.98,SW,215,0.0,0.0,76,0.00,,,0.00,Wunderground v.1.15,2013-01-14 02:35:00,
2013-01-13 21:40:00,67.8,60.0,29.98,SW,215,0.0,0.0,76,0.00,,,0.00,Wunderground v.1.15,2013-01-14 02:40:00,
2013-01-13 21:45:00,67.8,60.3,29.98,SW,215,0.0,0.0,77,0.00,,,0.00,Wunderground v.1.15,2013-01-14 02:45:00,
2013-01-13 21:50:00,67.6,60.1,29.99,SW,215,0.0,0.0,77,0.00,,,0.00,Wunderground v.1.15,2013-01-14 02:50:00,
2013-01-13 21:55:00,67.6,60.1,29.99,SW,215,0.0,0.0,77,0.00,,,0.00,Wunderground v.1.15,2013-01-14 02:55:00,
2013-01-13 22:00:00,67.4,60.3,29.99,SW,215,0.0,0.0,78,0.00,,,0.00,Wunderground v.1.15,2013-01-14 03:00:00,
2013-01-13 22:05:00,67.6,60.5,30.00,SW,215,0.0,1.0,78,0.00,,,0.00,Wunderground v.1.15,2013-01-14 03:05:00,
2013-01-13 22:10:00,67.6,60.5,30.00,SW,215,0.0,0.0,78,0.00,,,0.00,Wunderground v.1.15,2013-01-14 03:10:00,
2013-01-13 22:15:00,67.6,60.5,30.00,SW,215,0.0,0.0,78,0.00,,,0.00,Wunderground v.1.15,2013-01-14 03:15:00,
2013-01-13 22:20:00,67.6,60.9,30.01,SW,215,0.0,0.0,79,0.00,,,0.00,Wunderground v.1.15,2013-01-14 03:20:00,
2013-01-13 22:25:00,67.6,60.9,30.01,SW,216,0.0,0.0,79,0.00,,,0.00,Wunderground v.1.15,2013-01-14 03:25:00,
2013-01-13 22:30:00,67.4,60.7,30.01,SW,215,0.0,0.0,79,0.00,,,0.00,Wunderground v.1.15,2013-01-14 03:30:00,
2013-01-13 22:35:00,67.4,60.7,30.01,SW,215,0.0,0.0,79,0.00,,,0.00,Wunderground v.1.15,2013-01-14 03:35:00,
2013-01-13 22:40:00,67.4,60.7,30.01,SW,215,0.0,0.0,79,0.00,,,0.00,Wunderground v.1.15,2013-01-14 03:40:00,
2013-01-13 22:45:00,67.3,60.6,30.01,SW,215,0.0,0.0,79,0.00,,,0.00,Wunderground v.1.15,2013-01-14 03:45:00,
2013-01-13 22:50:00,67.1,60.4,30.01,SW,215,0.0,0.0,79,0.00,,,0.00,Wunderground v.1.15,2013-01-14 03:50:00,
2013-01-13 22:55:00,67.1,60.4,30.01,SW,215,0.0,0.0,79,0.00,,,0.00,Wunderground v.1.15,2013-01-14 03:55:00,
2013-01-13 23:00:00,66.9,60.2,30.01,SW,215,0.0,0.0,79,0.00,,,0.00,Wunderground v.1.15,2013-01-14 04:00:00,
2013-01-13 23:05:00,66.8,60.4,30.01,SW,215,0.0,0.0,80,0.00,,,0.00,Wunderground v.1.15,2013-01-14 04:05:00,
2013-01-13 23:10:00,66.8,60.4,30.01,SW,215,0.0,0.0,80,0.00,,,0.00,Wunderground v.1.15,2013-01-14 04:10:00,
2013-01-13 23:15:00,66.6,60.2,30.01,SW,215,0.0,0.0,80,0.00,,,0.00,Wunderground v.1.15,2013-01-14 04:15:00,
2013-01-13 23:20:00,66.4,60.0,30.01,SW,215,0.0,0.0,80,0.00,,,0.00,Wunderground v.1.15,2013-01-14 04:20:00,
2013-01-13 23:25:00,66.3,59.9,30.01,SW,215,0.0,0.0,80,0.00,,,0.00,Wunderground v.1.15,2013-01-14 04:25:00,
2013-01-13 23:30:00,66.1,59.7,30.01,SW,215,0.0,0.0,80,0.00,,,0.00,Wunderground v.1.15,2013-01-14 04:30:00,
2013-01-13 23:35:00,66.1,59.7,30.02,SW,215,0.0,0.0,80,0.00,,,0.00,Wunderground v.1.15,2013-01-14 04:35:00,
2013-01-13 23:40:00,66.0,59.7,30.02,SW,215,0.0,0.0,80,0.00,,,0.00,Wunderground v.1.15,2013-01-14 04:40:00,
2013-01-13 23:45:00,65.8,59.5,30.02,SW,215,0.0,0.0,80,0.00,,,0.00,Wunderground v.1.15,2013-01-14 04:45:00,
2013-01-13 23:50:00,65.8,59.5,30.01,SW,215,0.0,0.0,80,0.00,,,0.00,Wunderground v.1.15,2013-01-14 04:50:00,
2013-01-13 23:55:00,65.6,59.3,30.01,SW,215,0.0,0.0,80,0.00,,,0.00,Wunderground v.1.15,2013-01-14 04:55:00,